Location: Unspecified
(0.0000°N, 0.0000°E)
Time: 08:25:46
(UTC+00:00)

N. Korean satellite - Pass Details

Date: 23 November 2020
Orbit: 452 x 504 km, 97.2° (Epoch: 27 November)

Event Time Altitude Azimuth Distance (km) Brightness Sun altitude
Rises 04:42:25 0° 26° (NNE) 2,550 10.3 -15.0°
Reaches altitude 10° 04:44:36 10° 35° (NE) 1,680 9.5 -14.5°
Maximum altitude 04:47:54 34° 101° (E) 836 8.5 -13.7°
Drops below altitude 10° 04:51:16 10° 167° (SSE) 1,706 9.8 -12.9°
Sets 04:53:29 0° 176° (S) 2,597 10.6 -12.4°
